DW6873 Weather Reports


Display with metric or nautical units.
time (UTC)temp
F
wind
direction
speed
MPH
gust
MPH
rain 1hr
in
rain 24hr
in
rain mn
in
humidity
%
barometer
mb
20260505231517 40 333 0.0 1.0 0.00 0.00 0.00 46 1015.5
20260505230023 40 333 0.0 1.0 0.00 0.00 0.00 45 1015.5
20260505224545 40 328 0.0 1.0 0.00 0.00 0.00 45 1015.5
20260505223046 41 347 0.0 1.0 0.00 0.00 0.00 45 1015.5
20260505221540 41 321 0.0 1.0 0.00 0.00 0.00 46 1015.5
20260505220039 41 340 0.0 1.0 0.00 0.00 0.00 45 1015.4
20260505214538 41 331 0.0 1.0 0.00 0.00 0.00 45 1015.4
20260505213037 41 325 0.0 1.0 0.00 0.00 0.00 46 1015.4
20260505211535 41 320 0.0 4.0 0.00 0.00 0.00 46 1015.4
20260505210034 41 327 0.0 1.0 0.00 0.00 0.00 45 1015.3
20260505204531 41 314 0.0 4.0 0.00 0.00 0.00 45 1015.4
20260505203036 41 331 0.0 1.0 0.00 0.00 0.00 46 1015.3
20260505201528 41 317 0.0 12.0 0.00 0.00 0.00 45 1015.3
20260505200031 41 344 0.0 6.0 0.00 0.00 0.00 47 1015.3
20260505194526 40 298 0.0 2.0 0.00 0.00 0.00 45 1015.2
20260505193024 41 325 0.0 2.0 0.00 0.00 0.00 46 1015.0
20260505191522 40 316 0.0 2.0 0.00 0.00 0.00 46 1014.9
20260505190030 40 326 0.0 2.0 0.00 0.00 0.00 47 1014.8
20260505184521 40 319 0.0 4.0 0.00 0.00 0.00 47 1014.8
20260505183020 41 352 0.0 11.0 0.00 0.00 0.00 46 1014.8
20260505181518 41 345 0.0 9.0 0.00 0.00 0.00 45 1014.7
20260505180016 40 298 0.0 4.0 0.00 0.00 0.00 45 1014.9
20260505174514 40 320 0.0 10.0 0.00 0.00 0.00 44 1014.8
20260505173014 40 301 0.0 12.0 0.00 0.00 0.00 45 1015.0
20260505171612 40 327 0.0 10.0 0.00 0.00 0.00 45 1015.0
20260505170039 40 323 0.0 3.0 0.00 0.00 0.00 47 1014.9
20260505164535 39 331 0.0 8.0 0.00 0.00 0.00 49 1014.8
20260505163031 38 334 0.0 9.0 0.00 0.00 0.00 50 1014.8
20260505161531 38 338 0.0 2.0 0.00 0.00 0.00 52 1014.6
20260505161529 38 344 0.0 2.0 0.00 0.00 0.00 52 1014.6
20260505153025 37 336 0.0 3.0 0.00 0.00 0.00 52 1014.5
20260505151531 37 322 0.0 5.0 0.00 0.00 0.00 56 1014.6
20260505124538 35 321 0.0 0.0 0.00 0.00 0.00 71 1013.3
20260505123034 35 323 0.0 0.0 0.00 0.00 0.00 72 1013.0
20260505121536 0 0.0 0.0 0.00 0.00 0.00 1012.9
20260505120051 0 0.0 0.0 0.00 0.00 0.00 1012.8
20260505114519 0 0.0 0.0 0.00 0.00 0.00 1012.8
20260505113014 0 0.0 0.0 0.00 0.00 0.00 1012.7
20260505111510 34 299 0.0 0.0 0.00 0.00 0.00 70 1012.6
20260505101516 34 293 0.0 0.0 0.00 0.00 0.00 70 1012.6
20260505100002 34 302 0.0 0.0 0.00 0.00 0.00 70 1012.5
20260505094600 34 285 0.0 0.0 0.00 0.00 0.00 70 1012.4
20260505093059 34 304 0.0 0.0 0.00 0.00 0.00 70 1012.3
20260505091605 34 306 0.0 0.0 0.00 0.00 0.00 70 1012.3
20260505090039 34 311 0.0 0.0 0.00 0.00 0.00 69 1012.3
20260505084526 34 295 0.0 0.0 0.00 0.00 0.00 69 1012.3
20260505083023 35 303 0.0 0.0 0.00 0.00 0.00 68 1012.2
20260505081522 35 301 0.0 0.0 0.00 0.00 0.00 69 1012.2
20260505080020 35 304 0.0 0.0 0.00 0.00 0.00 68 1012.2
20260505074520 35 268 0.0 0.0 0.00 0.00 0.00 68 1012.1
20260505073028 35 287 0.0 0.0 0.00 0.00 0.00 66 1012.2
20260505071519 35 335 0.0 0.0 0.00 0.00 0.00 65 1012.1
20260505070014 35 332 0.0 0.0 0.00 0.00 0.00 65 1012.1
20260505064531 36 309 0.0 0.0 0.00 0.00 0.00 62 1012.1
20260505063008 36 316 0.0 0.0 0.00 0.00 0.00 61 1012.1
20260505061515 37 331 0.0 1.0 0.00 0.00 0.00 60 1011.9
20260505060006 37 325 0.0 0.0 0.00 0.00 0.00 60 1011.7
20260505054504 37 327 0.0 1.0 0.00 0.00 0.00 61 1011.6
20260505053034 37 317 0.0 1.0 0.00 0.00 0.00 60 1011.4
20260505051533 37 317 0.0 1.0 0.00 0.00 0.00 59 1011.4
20260505041525 36 314 0.0 0.0 0.00 0.00 0.00 58 1011.1
20260505040022 35 321 0.0 0.0 0.00 0.00 0.00 58 1011.0
20260505034522 35 324 0.0 0.0 0.00 0.00 0.00 59 1010.8
20260505033021 36 334 0.0 0.0 0.00 0.00 0.00 58 1010.6
20260505031536 36 334 0.0 0.0 0.00 0.00 0.00 57 1010.5
20260505030015 36 314 0.0 0.0 0.00 0.00 0.00 56 1010.3
20260505024517 37 316 0.0 2.0 0.00 0.00 0.00 55 1010.1
20260505023009 37 325 0.0 1.0 0.00 0.00 0.00 54 1009.7
20260505021503 37 333 0.0 0.0 0.00 0.00 0.00 54 1009.4
20260505020100 39 349 0.0 0.0 0.00 0.00 0.00 53 1009.1
20260505014601 40 307 0.0 1.0 0.00 0.00 0.00 51 1008.9
20260505013104 41 340 0.0 1.0 0.00 0.00 0.00 49 1008.7
20260505011546 42 358 0.0 2.0 0.00 0.00 0.00 47 1008.5
20260505010041 43 319 0.0 3.0 0.00 0.00 0.00 45 1008.3
20260505004547 43 342 0.0 7.0 0.00 0.00 0.00 45 1008.2
20260505003036 44 333 0.0 5.0 0.00 0.00 0.00 45 1008.2
20260505001536 44 323 0.0 3.0 0.00 0.00 0.00 45 1008.1
20260505000052 44 328 0.0 5.0 0.00 0.00 0.00 45 1008.1
20260504234530 44 307 0.0 9.0 0.00 0.00 0.00 45 1007.9
20260504233027 45 343 0.0 8.0 0.00 0.00 0.00 45 1007.8